Location: Arbon
(43.0005°N, 0.7472°E)
Time: 11:49:59
(UTC+00:00)

Cosmos 2369 Rocket - Pass Details

Date: 22 April 2026
Orbit: 829 x 850 km, 71.0° (Epoch: 20 May)

Event Time Altitude Azimuth Distance (km) Brightness Sun altitude
Rises 20:04:01 0° 340° (NNW) 3,380 6.2 -13.5°
Reaches altitude 10° 20:06:37 10° 348° (NNW) 2,442 5.2 -13.9°
Maximum altitude 20:11:52 40° 58° (ENE) 1,212 2.8 -14.7°
Enters shadow 20:14:52 23° 113° (ESE) 1,716 3.2 -15.2°
